{"data":{"norad_id":61198,"intl_designator":"2024-170D","name":"TIANQI-32","alt_names":[],"object_type":"PAYLOAD","status":"ACTIVE","operator":null,"country":"PRC","launch_date":"2024-09-20","launch_site_code":"XICLF","launch_vehicle":null,"mission":null,"orbit_class":"UNKNOWN","rcs_meters":null,"size_class":null,"mass_kg":null,"dimensions":null,"purposes":[],"wikipedia_slug":null,"has_3d_model":false,"image_url":null,"decayed_at":null,"tle_current":{"epoch":"2026-05-25T02:36:36.222048Z","epoch_age_seconds":69247,"freshness":"FRESH","line1":"1 61198U 24170D   26145.10875257  .00000057  00000+0  12663-3 0  9994","line2":"2 61198  44.8603 240.3550 0007887 315.5351  44.4847 13.99154635 81303","mean_motion":13.99154635,"eccentricity":0.0007887,"inclination_deg":44.8603,"raan_deg":240.355,"arg_perigee_deg":315.5351,"mean_anomaly_deg":44.4847,"bstar":0.00012663,"rev_number":8130,"period_min":102.91928883186,"perigee_km":890.98628256847,"apogee_km":902.46164825531,"semimajor_km":7274.8609654119,"source":"CELESTRAK","updated_at":"2026-05-25T13:38:02.314422Z"}}}